Tracking 19795 objects as of 18-Jul-2019
HD Live streaming from Space Station
objects crossing your sky now

FENGYUN 1C DEB

Track FENGYUN 1C DEB now!
10-day predictions


NORAD ID: 31943
Int'l Code: 1999-025CMU
Perigee: 564.8 km
Apogee: 778.6 km
Inclination: 99.2 °
Period: 98.0 minutes
Semi major axis: 7042 km
RCS: 0.0023 m2 (small)
Launch date: May 10, 1999
Source: People's Republic of China (PRC)
Launch site: Taiyaun Space Center, China (TSC)

Note: This is SATELLITE DEBRIS
aabbcc
Your satellite tracking list
Your tracking list is empty




NASA's NSSDC Master Catalog

Two Line Element Set (TLE):
1 31943U 99025CMU 11302.75004410  .00016603  00000-0  23842-2 0  9990
2 31943  99.1955 130.6585 0151772 109.0110 252.7472 14.68906826231110
Source of the keplerian elements: AFSPC